Weather Roundup
Issued by NWS Chicago, IL

Home | Current Version | Previous Version | Text Only | Print | Product List | Glossary On
Versions: 1 2 3 4 5 6 7 8 9 10 11 12 13 14 15 16 17 18 19 20 21 22 23 24 25 26 27 28 29 30 31 32 33 34 35 36 37 38 39 40 41 42 43 44 45 46 47 48 49 50
000
NZUS59 KLOT 260304
HRRLOT

CHICAGO AREA WEATHER ROUNDUP
NATIONAL WEATHER SERVICE CHICAGO/ROMEOVILLE IL
1000 PM CDT THU MAY 25 2017

NOTE: "FAIR" INDICATES FEW OR NO CLOUDS BELOW 12,000 FEET WITH NO
SIGNIFICANT WEATHER AND/OR OBSTRUCTIONS TO VISIBILITY.

* THESE STATIONS ARE NOT UNDER NWS QUALITY CONTROL. THEY ALSO MAY NOT
  REPORT WEATHER SUCH AS PRECIPITATION OR FOG.

ILZ005-006-012>014-019>023-260400-
NORTHEAST ILLINOIS

CITY           SKY/WX    TMP DP  RH WIND       PRES   REMARKS
OHARE          PTCLDY    57  49  74 CALM      29.75R
MIDWAY         PTCLDY    59  50  72 N6        29.76R
AURORA         PTCLDY    62  55  77 CALM      29.76R
LANSING*       CLEAR     52  51  95 CALM      29.77R
JOLIET*        CLEAR     57  55  91 CALM      29.76R
WAUKEGAN       MOCLDY    55  51  86 CALM      29.75R
DUPAGE AIRPORT MOCLDY    59  54  83 E5        29.75R
WHEELING       CLEAR     54  52  93 CALM      29.77R
KANKAKEE*      MOCLDY    56  51  82 CALM      29.78R
MORRIS*        CLEAR     58  54  85 CALM      29.75R
LEWIS AIRPORT* PTCLDY    58  55  90 SE3       29.76R
NORTHERLY ISL    N/A     57  51  80 MISG        N/A
$$

WIZ051-052-058>065-066-070>072-260400-
SOUTHEAST WISCONSIN

CITY           SKY/WX    TMP DP  RH WIND       PRES   REMARKS
MILWAUKEE      CLEAR     55  51  86 N6        29.75R
KENOSHA*       CLEAR     55  51  86 N5        29.75R
RACINE*        CLEAR     55  50  83 N8        29.77R
$$

INZ001>003-010>013-019-020-260400-
NORTHWEST INDIANA

CITY           SKY/WX    TMP DP  RH WIND       PRES   REMARKS
GARY*          PTCLDY    55  50  82 CALM      29.77R
MICHIGAN CITY* NOT AVBL
RENSSELAER*    NOT AVBL
VALPARAISO     CLEAR     52  50  93 W7        29.76R
$$

LMZ740>746-260400-
SOUTHERN LAKE MICHIGAN

STATION/POSITION TIME  SKY/WX   TEMP WIND        PRES    VSBY
                                AIR  DIR/SP/G
                 (UTC)          (F)  (DEG/KT/KT) (MB)    (MI)
HARRISON CRIB    0240            54  330/  9/ 10   N/A
BURNHAM HARBOR   0300            57  340/  5/  9   N/A
CALUMET HARBOR   0230            54  340/  5/  7 1007.1R
BURNS HARBOR     0240            54  280/  7/  9 1008.1R
MICHIGAN CITY    0240            51  230/  9/ 10   N/A
$$

ABBREVIATIONS USED IN REMARKS
   TC - TEMPERATURE IN CELSIUS
  WCI - WIND CHILL INDEX
   HX - HEAT INDEX
  VSB - VISIBILITY
$$



USA.gov is the U.S. government's official web portal to all federal, state and local government web resources and services.